Location: Mountain Grove
(34.0887°N, 86.6172°W)
Time: 21:19:54
(UTC+00:00)

OAO 1 - Pass Details

Date: 14 July 2020
Orbit: 774 x 783 km, 35.0° (Epoch: 08 August)

Event Time Altitude Azimuth Distance (km) Brightness Sun altitude
Exits shadow 09:03:08 27° 259° (W) 1,457 5.5 -18.2°
Maximum altitude 09:06:13 90° 183° (S) 784 4.5 -17.7°
Drops below altitude 10° 09:11:45 10° 81° (E) 2,330 7.9 -16.9°
Sets 09:14:13 0° 81° (E) 3,259 8.7 -16.5°
